DW0372 Weather Reports


time (UTC)temp
F
wind
direction
speed
knots
gust
knots
rain 1hr
in
rain 24hr
in
rain mn
in
humidity
%
barometer
mb
20260503195003 75 360 0.0 5.2 0.00 0.00 0.00 50 1012.9
20260503194520 75 307 0.0 5.2 0.00 0.00 0.00 51 1013.0
20260503194005 75 46 0.9 5.2 0.00 0.00 0.00 49 1013.0
20260503193503 75 4 1.7 5.2 0.00 0.00 0.00 50 1013.1
20260503193015 75 355 0.0 4.3 0.00 0.00 0.00 52 1013.1
20260503192507 73 39 0.0 6.1 0.00 0.00 0.00 51 1013.1
20260503192007 74 356 2.6 6.1 0.00 0.00 0.00 50 1013.2
20260503191510 73 349 0.0 6.1 0.00 0.00 0.00 53 1013.2
20260503191003 74 6 1.7 4.3 0.00 0.00 0.00 47 1013.2
20260503190504 73 359 0.0 4.3 0.00 0.00 0.00 54 1013.2
20260503190014 73 1 1.7 6.1 0.00 0.00 0.00 49 1013.2
20260503185504 73 360 1.7 6.1 0.00 0.00 0.00 50 1013.3
20260503185005 72 338 0.9 6.1 0.00 0.00 0.00 54 1013.4
20260503184514 72 311 1.7 6.1 0.00 0.00 0.00 55 1013.5
20260503184006 72 359 0.0 4.3 0.00 0.00 0.00 59 1013.5
20260503183505 72 358 1.7 5.2 0.00 0.00 0.00 53 1013.5
20260503183020 72 348 0.0 5.2 0.00 0.00 0.00 54 1013.5
20260503182503 72 1 1.7 4.3 0.00 0.00 0.00 54 1013.6
20260503182006 71 8 0.0 4.3 0.00 0.00 0.00 58 1013.6
20260503181537 71 348 0.0 4.3 0.00 0.00 0.00 57 1013.5
20260503181006 70 359 0.0 3.5 0.00 0.00 0.00 58 1013.5
20260503180505 70 357 0.0 3.5 0.00 0.00 0.00 60 1013.6
20260503180026 70 360 0.0 5.2 0.00 0.00 0.00 57 1013.7
20260503175501 69 356 0.9 5.2 0.00 0.00 0.00 60 1013.7
20260503175001 69 329 0.0 3.5 0.00 0.00 0.00 58 1013.9
20260503174509 67 345 0.0 4.3 0.00 0.00 0.00 62 1013.9
20260503174004 68 359 1.7 4.3 0.00 0.00 0.00 62 1013.9
20260503173505 67 340 0.0 3.5 0.00 0.00 0.00 63 1014.0
20260503173009 67 353 0.0 3.5 0.00 0.00 0.00 62 1014.1
20260503172508 66 360 0.0 3.5 0.00 0.00 0.00 64 1014.1
20260503172005 66 346 0.9 4.3 0.00 0.00 0.00 64 1014.1
20260503171525 65 335 0.0 5.2 0.00 0.00 0.00 67 1014.1
20260503171005 65 360 1.7 5.2 0.00 0.00 0.00 65 1014.2
20260503170505 65 359 0.0 5.2 0.00 0.00 0.00 67 1014.3
20260503151008 56 4 0.0 1.7 0.00 0.00 0.00 85 1014.3
20260503110507 52 1 0.0 0.0 0.00 0.00 0.00 89 1014.6
20260503090503 55 1 0.0 0.0 0.00 0.00 0.00 82 1014.7
20260503081504 56 1 0.0 0.0 0.00 0.00 0.00 79 1014.6
20260503081009 56 1 0.0 0.0 0.00 0.00 0.00 82 1014.5
20260503080503 55 1 0.0 0.0 0.00 0.00 0.00 83 1014.5
20260503071507 57 1 0.0 0.0 0.00 0.00 0.00 76 1014.5
20260503055002 60 1 0.0 0.0 0.00 0.00 0.00 72 1014.5
20260503053016 59 1 0.0 0.0 0.00 0.00 0.00 72 1014.4
20260503052507 60 1 0.0 0.0 0.00 0.00 0.00 72 1014.5
20260503051004 60 1 0.0 0.0 0.00 0.00 0.00 70 1014.5
20260503050505 61 1 0.0 0.0 0.00 0.00 0.00 70 1014.5
20260503044511 61 1 0.0 0.0 0.00 0.00 0.00 69 1014.4
20260503043503 61 1 0.0 0.0 0.00 0.00 0.00 67 1014.3
20260503042503 62 1 0.0 0.0 0.00 0.00 0.00 65 1014.1
20260503042004 63 1 0.0 0.0 0.00 0.00 0.00 67 1014.1
20260503041517 63 1 0.0 0.0 0.00 0.00 0.00 62 1014.1
20260503041004 64 1 0.0 0.0 0.00 0.00 0.00 63 1014.0
20260503040509 64 1 0.0 0.0 0.00 0.00 0.00 66 1014.0
20260503040020 63 1 0.0 0.0 0.00 0.00 0.00 63 1014.0
20260503035003 63 1 0.0 0.0 0.00 0.00 0.00 61 1013.9
20260503033503 64 1 0.0 0.0 0.00 0.00 0.00 63 1013.7
20260503033008 65 1 0.0 0.0 0.00 0.00 0.00 62 1013.6
20260503032504 65 1 0.0 0.0 0.00 0.00 0.00 60 1013.5
20260503031505 66 1 0.0 0.0 0.00 0.00 0.00 62 1013.4
20260503031005 66 1 0.0 0.0 0.00 0.00 0.00 58 1013.3
20260503030506 66 1 0.0 0.0 0.00 0.00 0.00 60 1013.3
20260503025503 67 1 0.0 0.0 0.00 0.00 0.00 59 1013.2
20260503025003 67 1 0.0 0.0 0.00 0.00 0.00 59 1013.2
20260503024510 68 1 0.0 3.5 0.00 0.00 0.00 58 1013.2
20260503024004 68 1 0.0 3.5 0.00 0.00 0.00 57 1013.2
20260503023503 68 8 0.0 0.9 0.00 0.00 0.00 58 1013.1
20260503023016 68 8 0.0 0.9 0.00 0.00 0.00 58 1013.1
20260503022506 68 10 0.0 0.9 0.00 0.00 0.00 59 1013.2
20260503022004 68 9 0.0 2.6 0.00 0.00 0.00 59 1013.2
20260503020507 69 354 0.0 4.3 0.00 0.00 0.00 58 1013.1
20260503020012 69 354 0.0 5.2 0.00 0.00 0.00 58 1013.1
20260503015507 69 13 0.9 7.0 0.00 0.00 0.00 57 1013.2
20260503015009 69 338 0.9 7.0 0.00 0.00 0.00 57 1013.2
20260503014508 69 307 1.7 7.0 0.00 0.00 0.00 57 1013.2
20260503014003 69 1 1.7 6.1 0.00 0.00 0.00 58 1013.1
20260503013502 70 15 0.9 6.1 0.00 0.00 0.00 57 1013.1
20260503013010 70 359 0.0 5.2 0.00 0.00 0.00 58 1013.1
20260503012505 70 335 1.7 4.3 0.00 0.00 0.00 58 1013.2
20260503011524 70 359 1.7 6.1 0.00 0.00 0.00 58 1013.2
20260503010507 71 340 0.9 5.2 0.00 0.00 0.00 59 1013.1
20260503010021 71 349 2.6 7.8 0.00 0.00 0.00 59 1013.1
20260503005506 71 356 2.6 7.8 0.00 0.00 0.00 59 1013.2
20260503005005 71 339 1.7 7.0 0.00 0.00 0.00 59 1013.2
20260503004520 71 26 2.6 7.8 0.00 0.00 0.00 59 1013.3
20260503004009 71 318 1.7 7.8 0.00 0.00 0.00 60 1013.3
20260503003015 71 314 0.0 6.1 0.00 0.00 0.00 59 1013.3
20260503002506 71 1 1.7 6.1 0.00 0.00 0.00 59 1013.3
20260503002003 71 338 2.6 6.1 0.00 0.00 0.00 59 1013.3
20260503001510 72 360 0.0 5.2 0.00 0.00 0.00 59 1013.3
20260503000503 72 2 0.0 7.8 0.00 0.00 0.00 59 1013.4
20260502235505 72 345 0.9 7.8 0.00 0.00 0.00 59 1013.4
20260502235006 72 359 2.6 7.8 0.00 0.00 0.00 59 1013.6
20260502234533 72 1 1.7 8.7 0.00 0.00 0.00 59 1013.6
20260502234003 72 315 4.3 8.7 0.00 0.00 0.00 57 1013.7
20260502233508 72 355 1.7 7.0 0.00 0.00 0.00 58 1013.7
20260502232510 72 8 0.0 7.0 0.00 0.00 0.00 57 1013.8
20260502232005 72 14 0.9 7.0 0.00 0.00 0.00 58 1013.9
20260502231521 72 321 1.7 7.0 0.00 0.00 0.00 56 1014.0
20260502231007 72 357 0.9 7.8 0.00 0.00 0.00 58 1014.0
20260502230508 72 340 2.6 7.8 0.00 0.00 0.00 57 1014.2
20260502225508 72 296 1.7 7.8 0.00 0.00 0.00 58 1014.2
20260502225006 73 10 0.0 8.7 0.00 0.00 0.00 58 1014.2
20260502224514 72 27 2.6 8.7 0.00 0.00 0.00 59 1014.3
20260502224010 72 312 0.9 7.0 0.00 0.00 0.00 58 1014.4
20260502223506 71 32 0.0 7.0 0.00 0.00 0.00 60 1014.5
20260502223020 71 1 0.9 7.0 0.00 0.00 0.00 59 1014.5
20260502222508 72 360 0.9 6.1 0.00 0.00 0.00 59 1014.5
20260502222007 71 1 1.7 7.0 0.00 0.00 0.00 61 1014.6
20260502221524 71 332 1.7 7.0 0.00 0.00 0.00 61 1014.6
20260502220508 71 352 2.6 7.8 0.00 0.00 0.00 61 1014.7
20260502220028 71 293 3.5 5.2 0.00 0.00 0.00 62 1014.7
20260502215510 71 359 0.0 7.0 0.00 0.00 0.00 63 1014.7
20260502214006 70 345 1.7 6.1 0.00 0.00 0.00 63 1014.8
20260502213506 70 8 0.0 5.2 0.00 0.00 0.00 63 1014.9
20260502213028 70 282 2.6 7.0 0.00 0.00 0.00 63 1014.9
20260502212507 70 343 2.6 7.0 0.00 0.00 0.00 64 1015.0
20260502212008 70 9 1.7 5.2 0.00 0.00 0.00 65 1015.1
20260502211518 69 2 0.9 7.0 0.00 0.00 0.00 67 1015.1
20260502211008 69 14 1.7 7.0 0.00 0.00 0.00 64 1015.2
20260502210511 69 359 2.6 7.0 0.00 0.00 0.00 63 1015.1
20260502210026 69 345 2.6 7.0 0.00 0.00 0.00 64 1015.1
20260502205508 69 8 0.9 7.0 0.00 0.00 0.00 64 1015.1
20260502205008 69 359 2.6 5.2 0.00 0.00 0.00 63 1015.2
20260502204526 68 15 0.0 5.2 0.00 0.00 0.00 64 1015.3
20260502203512 68 310 1.7 7.0 0.00 0.00 0.00 63 1015.3
20260502203024 68 3 0.9 5.2 0.00 0.00 0.00 65 1015.4
20260502202505 68 359 1.7 7.0 0.00 0.00 0.00 65 1015.4
20260502202006 67 6 3.5 7.0 0.00 0.00 0.00 64 1015.5
20260502201531 67 359 0.9 7.0 0.00 0.00 0.00 66 1015.6
20260502201007 67 28 1.7 7.0 0.00 0.00 0.00 67 1015.7
20260502200507 67 341 2.6 5.2 0.00 0.00 0.00 66 1015.7
20260502200023 68 336 1.7 5.2 0.00 0.00 0.00 65 1015.8
20260502195512 69 1 0.0 3.5 0.00 0.00 0.00 64 1015.8